IRIDIUM 44 [-] (25078 NORAD) Tracking and Keplerian Element Data

This shows tracking and keplerian element data for the satellite.

Feedback or suggestion? Click here.




ElementValue
Catalog25078
NameIRIDIUM 44 [-]
Epoch Orbit8048
Epoch Day198.97060705
Epoch Year2018
RAAN204.983
Inclination86.3967
Eccentricity0.0003911
Argument of Perigee71.3766
Mean Anonmoly288.7857
Mean Motion14.38199688
Decay Rate7.2E-07
L11 25078U 97077B 18198.97060705 .00000072 00000-0 17118-4 0 9994
L22 25078 86.3967 204.9830 0003911 71.3766 288.7857 14.38199688 80485

Live tracking and technical data element details for IRIDIUM 44 [-] (NORAD 25078). IRIDIUM 44 [-] can be tracked NOW for your location showing map with azimuth and elevation plus other details from your city location.

Track the satellite on the map from your city or location and see movement details for azimuth, elevation, latitude, longitude, range, height, and movement on the map or in text.







IsCatalogInMostPopularTable: catalog: 25078, numindb: 34
Update: records affected: 1



GetName: 25078 IRIDIUM 44 [-]

Hit Count: updated at: Fri, 20 Jul 2018 07:03:58 GMT